User: anonymous
Location: Unspecified
(0.0000°N, 0.0000°E)
Time: 02:15:30
(UTC+00:00)
Language:

OPTUS D2 - Orbit

View from above orbital plane
View from above orbital plane
View from above satellite
View from above satellite

Ground track
Ground track

The orbit data is extracted from the following two-line orbital elements,

1 32252U 07044A   14105.82252270 -.00000188  00000-0  10000-3 0  3938
2 32252 000.0332 093.6995 0003545 295.5245 262.7845 01.00272789 23953
Epoch (UTC): 15 April 2014 19:44:25
Eccentricity: 0.0003545
inclination: 0.0332°
perigee height: 35771 km
apogee height: 35801 km
right ascension of ascending node: 93.6995°
argument of perigee: 295.5245°
revolutions per day: 1.00272789
mean anomaly at epoch: 262.7845°
orbit number at epoch: 2395

The dashed part of the orbit path shows where the satellite is in the earth's shadow,  

DLR